Location: Buruvancha
(16.7551°N, 80.8407°E)
Time: 00:44:49
(UTC+00:00)

Daily predictions for brighter satellites

Satellite Brightness Start Highest point End
(mag) Time Altitude Azimuth Time Altitude Azimuth Time Altitude Azimuth
ARGOS Delta rocket 3.8 00:00:57 10° N 00:05:33 82° W 00:10:25 10° SSW
Cosmos 2322 3.8 00:01:08 10° SSW 00:06:40 55° WNW 00:12:12 10° N
ASC 2 Rocket 4.3 00:02:11 10° W 00:10:33 64° NNW 00:16:01 10° ENE
